Time,TemperatureF,DewpointF,PressureIn,WindDirection,WindDirectionDegrees,WindSpeedMPH,WindSpeedGustMPH,Humidity,HourlyPrecipIn,Conditions,Clouds,dailyrainin,SoftwareType,DateUTC
2013-02-09 00:00:00,40.5,38.9,29.92,SSW,202,0.0,1.0,94,0.00,,---,0.00,VWS V14.01,2013-02-09 08:00:00,
2013-02-09 00:10:00,40.4,39.0,29.92,SSW,195,0.0,0.0,95,0.00,,,0.00,weatherlink.com 1.10,2013-02-09 08:10:00,
2013-02-09 00:15:00,40.3,39.0,29.92,SSW,202,0.0,0.0,95,0.00,,---,0.00,VWS V14.01,2013-02-09 08:15:00,
2013-02-09 00:25:00,40.2,39.0,29.92,SSW,195,0.0,0.0,95,0.00,,,0.00,weatherlink.com 1.10,2013-02-09 08:25:00,
2013-02-09 00:30:00,40.1,38.8,29.92,SSW,202,0.0,0.0,95,0.00,,---,0.00,VWS V14.01,2013-02-09 08:30:00,
2013-02-09 00:40:00,40.1,39.0,29.93,SSW,195,0.0,1.0,95,0.00,,,0.00,weatherlink.com 1.10,2013-02-09 08:40:00,
2013-02-09 00:45:00,40.1,38.8,29.93,SSW,202,0.0,1.0,95,0.00,,---,0.00,VWS V14.01,2013-02-09 08:45:00,
2013-02-09 00:55:00,40.1,39.0,29.93,SSW,195,0.0,1.0,96,0.00,,,0.00,weatherlink.com 1.10,2013-02-09 08:55:00,
2013-02-09 01:00:00,40.2,39.2,29.93,SSW,202,0.0,1.0,96,0.00,,---,0.00,VWS V14.01,2013-02-09 09:00:00,
2013-02-09 01:10:00,40.2,39.0,29.93,SSW,195,0.0,0.0,96,0.00,,,0.00,weatherlink.com 1.10,2013-02-09 09:10:00,
2013-02-09 01:15:00,40.2,39.2,29.93,SSW,202,0.0,0.0,96,0.00,,---,0.00,VWS V14.01,2013-02-09 09:15:00,
2013-02-09 01:25:00,40.0,39.0,29.93,SSW,195,0.0,1.0,96,0.00,,,0.00,weatherlink.com 1.10,2013-02-09 09:25:00,
2013-02-09 01:30:00,39.9,38.6,29.93,SSW,202,0.0,1.0,95,0.00,,---,0.00,VWS V14.01,2013-02-09 09:30:00,
2013-02-09 01:40:00,39.8,39.0,29.93,SSW,195,0.0,0.0,95,0.00,,,0.00,weatherlink.com 1.10,2013-02-09 09:40:00,
2013-02-09 01:45:00,39.6,38.3,29.94,SSW,202,0.0,0.0,95,0.00,,---,0.00,VWS V14.01,2013-02-09 09:45:00,
2013-02-09 01:56:00,39.2,38.0,29.93,SSW,195,0.0,1.0,95,0.00,,,0.00,weatherlink.com 1.10,2013-02-09 09:56:00,
2013-02-09 02:00:00,39.2,37.9,29.94,SSW,202,0.0,1.0,95,0.00,,---,0.00,VWS V14.01,2013-02-09 10:00:00,
2013-02-09 02:11:00,38.8,38.0,29.94,SSW,195,0.0,0.0,95,0.00,,,0.00,weatherlink.com 1.10,2013-02-09 10:11:00,
2013-02-09 02:15:00,38.6,37.3,29.94,SSW,202,0.0,0.0,95,0.00,,---,0.00,VWS V14.01,2013-02-09 10:15:00,
2013-02-09 02:26:00,38.1,37.0,29.94,SSW,195,0.0,0.0,95,0.00,,,0.00,weatherlink.com 1.10,2013-02-09 10:26:00,
2013-02-09 02:30:00,38.0,36.7,29.94,SSW,202,0.0,0.0,95,0.00,,---,0.00,VWS V14.01,2013-02-09 10:30:00,
2013-02-09 02:41:00,37.7,37.0,29.94,SSW,195,0.0,1.0,96,0.00,,,0.00,weatherlink.com 1.10,2013-02-09 10:41:00,
2013-02-09 02:45:00,37.8,36.8,29.94,SSW,202,0.0,1.0,96,0.00,,---,0.00,VWS V14.01,2013-02-09 10:45:00,
2013-02-09 02:56:00,37.9,37.0,29.94,SSW,195,0.0,0.0,96,0.00,,,0.00,weatherlink.com 1.10,2013-02-09 10:56:00,
2013-02-09 03:00:00,37.9,36.9,29.94,SSW,202,0.0,1.0,96,0.00,,---,0.00,VWS V14.01,2013-02-09 11:00:00,
2013-02-09 03:11:00,37.9,37.0,29.94,SSW,195,0.0,0.0,96,0.00,,,0.00,weatherlink.com 1.10,2013-02-09 11:11:00,
2013-02-09 03:15:00,37.8,36.8,29.94,SSW,202,0.0,0.0,96,0.00,,---,0.00,VWS V14.01,2013-02-09 11:15:00,
2013-02-09 03:26:00,37.5,37.0,29.94,SSW,195,0.0,0.0,96,0.00,,,0.00,weatherlink.com 1.10,2013-02-09 11:26:00,
2013-02-09 03:30:00,37.5,36.5,29.94,SSW,202,0.0,1.0,96,0.00,,---,0.00,VWS V14.01,2013-02-09 11:30:00,
2013-02-09 03:41:00,37.3,36.0,29.94,SSW,195,0.0,0.0,96,0.00,,,0.00,weatherlink.com 1.10,2013-02-09 11:41:00,
2013-02-09 03:45:00,37.1,36.1,29.93,SSW,202,0.0,1.0,96,0.00,,---,0.00,VWS V14.01,2013-02-09 11:45:00,
2013-02-09 03:56:00,36.7,36.0,29.93,SSW,195,0.0,0.0,96,0.00,,,0.00,weatherlink.com 1.10,2013-02-09 11:56:00,
2013-02-09 04:00:00,36.6,35.6,29.94,SSW,202,0.0,0.0,96,0.00,,---,0.00,VWS V14.01,2013-02-09 12:00:00,
2013-02-09 04:11:00,36.6,36.0,29.94,SSW,195,0.0,0.0,96,0.00,,,0.00,weatherlink.com 1.10,2013-02-09 12:11:00,
2013-02-09 04:15:00,36.6,35.6,29.94,SSW,202,0.0,0.0,96,0.00,,---,0.00,VWS V14.01,2013-02-09 12:15:00,
2013-02-09 04:26:00,36.6,36.0,29.95,SSW,195,0.0,0.0,96,0.00,,,0.00,weatherlink.com 1.10,2013-02-09 12:26:00,
2013-02-09 04:30:00,36.5,35.7,29.95,SSW,202,0.0,1.0,97,0.00,,---,0.00,VWS V14.01,2013-02-09 12:30:00,
2013-02-09 04:41:00,36.5,36.0,29.95,SSW,195,0.0,0.0,97,0.00,,,0.00,weatherlink.com 1.10,2013-02-09 12:41:00,
2013-02-09 04:45:00,36.5,35.7,29.95,SSW,202,0.0,1.0,97,0.00,,---,0.00,VWS V14.01,2013-02-09 12:45:00,
2013-02-09 04:56:00,36.2,35.0,29.94,SSW,195,0.0,0.0,96,0.00,,,0.00,weatherlink.com 1.10,2013-02-09 12:56:00,
2013-02-09 05:00:00,36.2,35.2,29.94,SSW,202,0.0,0.0,96,0.00,,---,0.00,VWS V14.01,2013-02-09 13:00:00,
2013-02-09 05:11:00,36.2,35.0,29.94,SSW,195,0.0,0.0,96,0.00,,,0.00,weatherlink.com 1.10,2013-02-09 13:11:00,
2013-02-09 05:15:00,36.1,35.1,29.94,SSW,202,0.0,0.0,96,0.00,,---,0.00,VWS V14.01,2013-02-09 13:15:00,
2013-02-09 05:26:00,35.7,35.0,29.95,SSW,195,0.0,0.0,96,0.00,,,0.00,weatherlink.com 1.10,2013-02-09 13:26:00,
2013-02-09 05:30:00,35.6,34.6,29.95,SSW,202,0.0,0.0,96,0.00,,---,0.00,VWS V14.01,2013-02-09 13:30:00,
2013-02-09 05:41:00,35.7,35.0,29.95,SSW,195,0.0,0.0,97,0.00,,,0.00,weatherlink.com 1.10,2013-02-09 13:41:00,
2013-02-09 05:45:00,35.7,34.9,29.95,SSW,202,0.0,0.0,97,0.00,,---,0.00,VWS V14.01,2013-02-09 13:45:00,
2013-02-09 05:56:00,35.7,35.0,29.96,SSW,195,0.0,0.0,97,0.00,,,0.00,weatherlink.com 1.10,2013-02-09 13:56:00,
2013-02-09 06:00:00,35.6,34.8,29.96,SSW,202,0.0,0.0,97,0.00,,---,0.00,VWS V14.01,2013-02-09 14:00:00,
2013-02-09 06:11:00,35.5,35.0,29.96,SSW,195,0.0,0.0,97,0.00,,,0.00,weatherlink.com 1.10,2013-02-09 14:11:00,
2013-02-09 06:15:00,35.5,34.7,29.97,SSW,202,0.0,0.0,97,0.00,,---,0.00,VWS V14.01,2013-02-09 14:15:00,
2013-02-09 06:26:00,35.5,35.0,29.96,SSW,195,0.0,0.0,97,0.00,,,0.00,weatherlink.com 1.10,2013-02-09 14:26:00,
2013-02-09 06:30:00,35.5,34.7,29.97,SSW,202,0.0,0.0,97,0.00,,---,0.00,VWS V14.01,2013-02-09 14:30:00,
2013-02-09 06:41:00,35.3,35.0,29.97,SSW,195,0.0,0.0,97,0.00,,,0.00,weatherlink.com 1.10,2013-02-09 14:41:00,
2013-02-09 06:45:00,35.3,34.5,29.97,SSW,202,0.0,0.0,97,0.00,,---,0.00,VWS V14.01,2013-02-09 14:45:00,
2013-02-09 06:56:00,35.2,35.0,29.98,SSW,195,0.0,0.0,97,0.00,,,0.00,weatherlink.com 1.10,2013-02-09 14:56:00,
2013-02-09 07:00:00,35.3,34.5,29.98,SSW,202,0.0,0.0,97,0.00,,---,0.00,VWS V14.01,2013-02-09 15:00:00,
2013-02-09 07:11:00,35.4,35.0,29.99,SSW,195,0.0,0.0,97,0.00,,,0.00,weatherlink.com 1.10,2013-02-09 15:11:00,
2013-02-09 07:15:00,35.5,34.7,29.99,SSW,202,0.0,0.0,97,0.00,,---,0.00,VWS V14.01,2013-02-09 15:15:00,
2013-02-09 07:26:00,36.6,36.0,30.00,SSW,195,0.0,0.0,98,0.00,,,0.00,weatherlink.com 1.10,2013-02-09 15:26:00,
2013-02-09 07:30:00,36.9,36.4,30.00,SSW,202,0.0,0.0,98,0.00,,---,0.00,VWS V14.01,2013-02-09 15:30:00,
2013-02-09 07:41:00,38.8,38.0,30.00,SSW,194,0.0,2.0,98,0.00,,,0.00,weatherlink.com 1.10,2013-02-09 15:41:00,
2013-02-09 07:45:00,39.3,38.8,30.00,SSW,202,0.0,3.0,98,0.00,,---,0.00,VWS V14.01,2013-02-09 15:45:00,
2013-02-09 07:56:00,40.8,40.0,30.01,ENE,67,1.0,2.0,98,0.00,,,0.00,weatherlink.com 1.10,2013-02-09 15:56:00,
2013-02-09 08:00:00,41.0,40.5,30.01,East,90,0.0,3.0,98,0.00,,---,0.00,VWS V14.01,2013-02-09 16:00:00,
2013-02-09 08:11:00,41.9,41.0,30.01,NNE,32,0.0,3.0,98,0.00,,,0.00,weatherlink.com 1.10,2013-02-09 16:11:00,
2013-02-09 08:15:00,42.3,41.8,30.01,NE,45,0.0,3.0,98,0.00,,---,0.00,VWS V14.01,2013-02-09 16:15:00,
2013-02-09 08:26:00,43.6,43.0,30.02,NE,47,1.0,3.0,98,0.00,,,0.00,weatherlink.com 1.10,2013-02-09 16:26:00,
2013-02-09 08:30:00,43.9,43.4,30.02,ENE,68,1.0,4.0,98,0.00,,---,0.00,VWS V14.01,2013-02-09 16:30:00,
2013-02-09 08:41:00,45.1,44.0,30.02,ENE,61,1.0,3.0,95,0.00,,,0.00,weatherlink.com 1.10,2013-02-09 16:41:00,
2013-02-09 08:45:00,45.3,43.7,30.02,NE,45,1.0,3.0,94,0.00,,---,0.00,VWS V14.01,2013-02-09 16:45:00,
2013-02-09 08:57:00,46.2,44.0,30.02,East,80,1.0,3.0,92,0.00,,,0.00,weatherlink.com 1.10,2013-02-09 16:57:00,
2013-02-09 09:00:00,46.5,44.3,30.03,ENE,68,1.0,3.0,92,0.00,,---,0.00,VWS V14.01,2013-02-09 17:00:00,
2013-02-09 09:12:00,47.9,45.0,30.03,NE,48,1.0,4.0,89,0.00,,,0.00,weatherlink.com 1.10,2013-02-09 17:12:00,
2013-02-09 09:15:00,48.2,44.8,30.03,ENE,68,1.0,4.0,88,0.00,,---,0.00,VWS V14.01,2013-02-09 17:15:00,
2013-02-09 09:27:00,49.8,45.0,30.03,ENE,58,3.0,4.0,83,0.00,,,0.00,weatherlink.com 1.10,2013-02-09 17:27:00,
2013-02-09 09:30:00,50.1,44.8,30.03,ENE,68,1.0,4.0,82,0.00,,---,0.00,VWS V14.01,2013-02-09 17:30:00,
2013-02-09 09:42:00,51.4,44.0,30.03,ENE,78,0.0,3.0,77,0.00,,,0.00,weatherlink.com 1.10,2013-02-09 17:42:00,
2013-02-09 09:45:00,51.6,44.6,30.03,ENE,68,1.0,3.0,77,0.00,,---,0.00,VWS V14.01,2013-02-09 17:45:00,
2013-02-09 09:57:00,52.9,43.0,30.04,ESE,114,0.0,3.0,70,0.00,,,0.00,weatherlink.com 1.10,2013-02-09 17:57:00,
2013-02-09 10:00:00,53.0,43.5,30.04,ESE,112,1.0,3.0,70,0.00,,---,0.00,VWS V14.01,2013-02-09 18:00:00,
2013-02-09 10:12:00,53.8,44.0,30.04,East,100,3.0,3.0,69,0.00,,,0.00,weatherlink.com 1.10,2013-02-09 18:12:00,
2013-02-09 10:15:00,54.0,44.1,30.04,ESE,112,1.0,3.0,69,0.00,,---,0.00,VWS V14.01,2013-02-09 18:15:00,
2013-02-09 10:27:00,54.4,44.0,30.04,South,190,0.0,3.0,67,0.00,,,0.00,weatherlink.com 1.10,2013-02-09 18:27:00,
2013-02-09 10:30:00,54.1,42.6,30.04,ENE,68,1.0,3.0,65,0.00,,---,0.00,VWS V14.01,2013-02-09 18:30:00,
2013-02-09 10:42:00,54.1,42.0,30.04,East,88,0.0,2.0,65,0.00,,,0.00,weatherlink.com 1.10,2013-02-09 18:42:00,
2013-02-09 10:45:00,54.2,43.1,30.04,WNW,292,1.0,3.0,66,0.00,,---,0.00,VWS V14.01,2013-02-09 18:45:00,
2013-02-09 10:57:00,55.0,43.0,30.05,SSW,209,2.0,5.0,64,0.00,,,0.00,weatherlink.com 1.10,2013-02-09 18:57:00,
2013-02-09 11:00:00,55.1,43.2,30.05,SSW,202,2.0,6.0,64,0.00,,---,0.00,VWS V14.01,2013-02-09 19:00:00,
2013-02-09 11:12:00,56.1,43.0,30.04,SW,224,2.0,4.0,63,0.00,,,0.00,weatherlink.com 1.10,2013-02-09 19:12:00,
2013-02-09 11:15:00,56.3,44.3,30.04,SSW,202,1.0,7.0,64,0.00,,---,0.00,VWS V14.01,2013-02-09 19:15:00,
2013-02-09 11:27:00,56.3,43.0,30.04,SSW,213,2.0,7.0,62,0.00,,,0.00,weatherlink.com 1.10,2013-02-09 19:27:00,
2013-02-09 11:30:00,56.4,43.1,30.04,SSW,202,2.0,7.0,61,0.00,,---,0.00,VWS V14.01,2013-02-09 19:30:00,
2013-02-09 11:42:00,56.6,43.0,30.04,SW,229,2.0,6.0,61,0.00,,,0.00,weatherlink.com 1.10,2013-02-09 19:42:00,
2013-02-09 11:45:00,56.6,43.8,30.04,SSW,202,3.0,7.0,62,0.00,,---,0.00,VWS V14.01,2013-02-09 19:45:00,
2013-02-09 11:57:00,57.2,44.0,30.04,West,268,5.0,8.0,61,0.00,,,0.00,weatherlink.com 1.10,2013-02-09 19:57:00,
2013-02-09 12:00:00,57.0,44.1,30.04,SSW,202,3.0,8.0,62,0.00,,---,0.00,VWS V14.01,2013-02-09 20:00:00,
2013-02-09 12:12:00,56.9,43.0,30.03,WSW,254,6.0,7.0,61,0.00,,,0.00,weatherlink.com 1.10,2013-02-09 20:12:00,
2013-02-09 12:15:00,56.8,43.9,30.03,SSW,202,3.0,7.0,62,0.00,,---,0.00,VWS V14.01,2013-02-09 20:15:00,
2013-02-09 12:27:00,57.2,42.0,30.03,SSW,205,1.0,7.0,58,0.00,,,0.00,weatherlink.com 1.10,2013-02-09 20:27:00,
2013-02-09 12:30:00,57.1,42.5,30.03,SSW,202,3.0,7.0,58,0.00,,---,0.00,VWS V14.01,2013-02-09 20:30:00,
2013-02-09 12:42:00,57.9,43.0,30.03,South,188,0.0,7.0,59,0.00,,,0.00,weatherlink.com 1.10,2013-02-09 20:42:00,
2013-02-09 12:45:00,57.8,43.1,30.03,South,180,3.0,7.0,58,0.00,,---,0.00,VWS V14.01,2013-02-09 20:45:00,
2013-02-09 12:57:00,58.0,45.0,30.02,South,182,6.0,9.0,62,0.00,,,0.00,weatherlink.com 1.10,2013-02-09 20:57:00,
2013-02-09 13:00:00,58.0,44.2,30.02,SSW,202,3.0,9.0,60,0.00,,---,0.00,VWS V14.01,2013-02-09 21:00:00,
2013-02-09 13:12:00,57.5,44.0,30.02,SW,225,5.0,9.0,61,0.00,,,0.00,weatherlink.com 1.10,2013-02-09 21:12:00,
2013-02-09 13:15:00,57.6,44.3,30.02,SSW,202,4.0,10.0,61,0.00,,---,0.00,VWS V14.01,2013-02-09 21:15:00,
2013-02-09 13:27:00,57.8,44.0,30.02,SW,221,2.0,10.0,61,0.00,,,0.00,weatherlink.com 1.10,2013-02-09 21:27:00,
2013-02-09 13:30:00,58.0,45.1,30.02,SW,225,4.0,10.0,62,0.00,,---,0.00,VWS V14.01,2013-02-09 21:30:00,
2013-02-09 13:42:00,57.9,44.0,30.02,WSW,248,5.0,9.0,60,0.00,,,0.00,weatherlink.com 1.10,2013-02-09 21:42:00,
2013-02-09 13:45:00,57.8,44.9,30.02,SSW,202,4.0,9.0,62,0.00,,---,0.00,VWS V14.01,2013-02-09 21:45:00,
2013-02-09 13:57:00,57.9,44.0,30.02,SSW,202,3.0,9.0,61,0.00,,,0.00,weatherlink.com 1.10,2013-02-09 21:57:00,
2013-02-09 14:00:00,57.9,45.4,30.02,WSW,248,4.0,9.0,63,0.00,,---,0.00,VWS V14.01,2013-02-09 22:00:00,
2013-02-09 14:12:00,58.1,46.0,30.02,South,178,2.0,9.0,64,0.00,,,0.00,weatherlink.com 1.10,2013-02-09 22:12:00,
2013-02-09 14:15:00,58.2,45.7,30.02,SSW,202,4.0,9.0,63,0.00,,---,0.00,VWS V14.01,2013-02-09 22:15:00,
2013-02-09 14:27:00,58.4,46.0,30.02,SW,221,3.0,7.0,64,0.00,,,0.00,weatherlink.com 1.10,2013-02-09 22:27:00,
2013-02-09 14:30:00,58.4,46.7,30.02,SSW,202,4.0,10.0,65,0.00,,---,0.00,VWS V14.01,2013-02-09 22:30:00,
2013-02-09 14:42:00,58.1,46.0,30.02,WSW,246,6.0,9.0,65,0.00,,,0.00,weatherlink.com 1.10,2013-02-09 22:42:00,
2013-02-09 14:45:00,58.1,45.2,30.02,WSW,248,4.0,10.0,62,0.00,,---,0.00,VWS V14.01,2013-02-09 22:45:00,
2013-02-09 14:57:00,58.6,45.0,30.02,South,174,5.0,11.0,61,0.00,,,0.00,weatherlink.com 1.10,2013-02-09 22:57:00,
2013-02-09 15:00:00,58.4,44.6,30.02,SSW,202,4.0,11.0,60,0.00,,---,0.00,VWS V14.01,2013-02-09 23:00:00,
2013-02-09 15:12:00,58.1,43.0,30.01,SSW,202,1.0,7.0,58,0.00,,,0.00,weatherlink.com 1.10,2013-02-09 23:12:00,
2013-02-09 15:15:00,58.1,43.9,30.01,SSW,202,3.0,8.0,59,0.00,,---,0.00,VWS V14.01,2013-02-09 23:15:00,
2013-02-09 15:27:00,58.2,44.0,30.01,South,190,5.0,10.0,59,0.00,,,0.00,weatherlink.com 1.10,2013-02-09 23:27:00,
2013-02-09 15:30:00,58.1,43.4,30.01,SSW,202,4.0,10.0,58,0.00,,---,0.00,VWS V14.01,2013-02-09 23:30:00,
2013-02-09 15:42:00,58.0,43.0,30.02,SW,219,1.0,8.0,58,0.00,,,0.00,weatherlink.com 1.10,2013-02-09 23:42:00,
2013-02-09 15:45:00,58.1,43.9,30.01,SSW,202,4.0,10.0,59,0.00,,---,0.00,VWS V14.01,2013-02-09 23:45:00,
2013-02-09 15:57:00,57.9,43.0,30.01,West,267,6.0,9.0,58,0.00,,,0.00,weatherlink.com 1.10,2013-02-09 23:57:00,
2013-02-09 16:00:00,57.7,43.5,30.01,SSW,202,4.0,9.0,59,0.00,,---,0.00,VWS V14.01,2013-02-10 00:00:00,
2013-02-09 16:12:00,56.8,44.0,30.01,SW,232,3.0,10.0,62,0.00,,,0.00,weatherlink.com 1.10,2013-02-10 00:12:00,
2013-02-09 16:15:00,56.6,43.8,30.01,SSW,202,4.0,10.0,62,0.00,,---,0.00,VWS V14.01,2013-02-10 00:15:00,
2013-02-09 16:27:00,56.3,44.0,30.01,SSW,205,0.0,7.0,63,0.00,,,0.00,weatherlink.com 1.10,2013-02-10 00:27:00,
2013-02-09 16:30:00,56.2,43.8,30.01,SW,225,3.0,8.0,63,0.00,,---,0.00,VWS V14.01,2013-02-10 00:30:00,
2013-02-09 16:42:00,55.3,44.0,30.02,SW,219,1.0,10.0,66,0.00,,,0.00,weatherlink.com 1.10,2013-02-10 00:42:00,
2013-02-09 16:45:00,55.4,44.2,30.01,WSW,248,3.0,10.0,66,0.00,,---,0.00,VWS V14.01,2013-02-10 00:45:00,
2013-02-09 16:57:00,54.6,44.0,30.01,SW,233,0.0,7.0,67,0.00,,,0.00,weatherlink.com 1.10,2013-02-10 00:57:00,
2013-02-09 17:00:00,54.4,43.7,30.01,WSW,248,2.0,7.0,67,0.00,,---,0.00,VWS V14.01,2013-02-10 01:00:00,
2013-02-09 17:12:00,53.5,44.0,30.02,West,263,2.0,5.0,70,0.00,,,0.00,weatherlink.com 1.10,2013-02-10 01:12:00,
2013-02-09 17:15:00,53.4,43.9,30.01,WSW,248,2.0,5.0,70,0.00,,---,0.00,VWS V14.01,2013-02-10 01:15:00,
2013-02-09 17:27:00,52.7,44.0,30.02,SSW,213,0.0,4.0,72,0.00,,,0.00,weatherlink.com 1.10,2013-02-10 01:27:00,
2013-02-09 17:30:00,52.6,44.2,30.02,SW,225,1.0,4.0,73,0.00,,---,0.00,VWS V14.01,2013-02-10 01:30:00,
2013-02-09 17:42:00,52.0,44.0,30.02,SSW,199,0.0,4.0,75,0.00,,,0.00,weatherlink.com 1.10,2013-02-10 01:42:00,
2013-02-09 17:45:00,51.9,44.2,30.02,SSW,202,1.0,4.0,75,0.00,,---,0.00,VWS V14.01,2013-02-10 01:45:00,
2013-02-09 17:57:00,51.3,44.0,30.02,SSW,194,0.0,3.0,76,0.00,,,0.00,weatherlink.com 1.10,2013-02-10 01:57:00,
2013-02-09 18:00:00,51.3,44.0,30.02,SSW,202,1.0,3.0,76,0.00,,---,0.00,VWS V14.01,2013-02-10 02:00:00,
2013-02-09 18:12:00,50.7,44.0,30.02,SSW,194,1.0,3.0,77,0.00,,,0.00,weatherlink.com 1.10,2013-02-10 02:12:00,
2013-02-09 18:15:00,50.6,43.7,30.03,SSW,202,1.0,3.0,77,0.00,,---,0.00,VWS V14.01,2013-02-10 02:15:00,
2013-02-09 18:28:00,50.1,44.0,30.03,SSW,194,0.0,2.0,78,0.00,,,0.00,weatherlink.com 1.10,2013-02-10 02:28:00,
2013-02-09 18:30:00,50.0,43.4,30.03,SSW,202,0.0,2.0,78,0.00,,---,0.00,VWS V14.01,2013-02-10 02:30:00,
2013-02-09 18:42:00,49.6,43.0,30.04,SSW,194,0.0,2.0,79,0.00,,,0.00,weatherlink.com 1.10,2013-02-10 02:42:00,
2013-02-09 18:45:00,49.5,43.3,30.03,SSW,202,0.0,3.0,79,0.00,,---,0.00,VWS V14.01,2013-02-10 02:45:00,
2013-02-09 18:57:00,49.1,43.0,30.04,SSW,194,0.0,2.0,80,0.00,,,0.00,weatherlink.com 1.10,2013-02-10 02:57:00,
2013-02-09 19:00:00,49.0,43.1,30.03,SSW,202,0.0,2.0,80,0.00,,---,0.00,VWS V14.01,2013-02-10 03:00:00,
2013-02-09 19:12:00,48.5,43.0,30.04,SSW,194,0.0,0.0,80,0.00,,,0.00,weatherlink.com 1.10,2013-02-10 03:12:00,
2013-02-09 19:15:00,48.4,42.5,30.04,SSW,202,0.0,1.0,80,0.00,,---,0.00,VWS V14.01,2013-02-10 03:15:00,
2013-02-09 19:27:00,47.5,42.0,30.04,SSW,194,0.0,0.0,80,0.00,,,0.00,weatherlink.com 1.10,2013-02-10 03:27:00,
2013-02-09 19:30:00,47.4,41.9,30.04,SSW,202,0.0,0.0,81,0.00,,---,0.00,VWS V14.01,2013-02-10 03:30:00,
2013-02-09 19:42:00,46.6,41.0,30.05,SSW,194,0.0,0.0,82,0.00,,,0.00,weatherlink.com 1.10,2013-02-10 03:42:00,
2013-02-09 19:45:00,46.5,41.6,30.05,SSW,202,0.0,0.0,83,0.00,,---,0.00,VWS V14.01,2013-02-10 03:45:00,
2013-02-09 19:57:00,45.8,42.0,30.05,SSW,194,0.0,0.0,85,0.00,,,0.00,weatherlink.com 1.10,2013-02-10 03:57:00,
2013-02-09 20:00:00,45.7,41.5,30.05,SSW,202,0.0,0.0,85,0.00,,---,0.00,VWS V14.01,2013-02-10 04:00:00,
2013-02-09 20:13:00,44.9,41.0,30.06,SSW,194,0.0,0.0,85,0.00,,,0.00,weatherlink.com 1.10,2013-02-10 04:13:00,
2013-02-09 20:15:00,44.9,40.7,30.06,SSW,202,0.0,0.0,85,0.00,,---,0.00,VWS V14.01,2013-02-10 04:15:00,
2013-02-09 20:28:00,44.1,40.0,30.06,SSW,194,0.0,0.0,86,0.00,,,0.00,weatherlink.com 1.10,2013-02-10 04:28:00,
2013-02-09 20:30:00,44.0,40.1,30.06,SSW,202,0.0,0.0,86,0.00,,---,0.00,VWS V14.01,2013-02-10 04:30:00,
2013-02-09 20:43:00,43.6,40.0,30.07,SSW,194,0.0,0.0,88,0.00,,,0.00,weatherlink.com 1.10,2013-02-10 04:43:00,
2013-02-09 20:45:00,43.6,40.3,30.07,SSW,202,0.0,0.0,88,0.00,,---,0.00,VWS V14.01,2013-02-10 04:45:00,
2013-02-09 20:58:00,43.0,40.0,30.07,SSW,194,0.0,0.0,89,0.00,,,0.00,weatherlink.com 1.10,2013-02-10 04:58:00,
2013-02-09 21:00:00,43.0,40.0,30.07,SSW,202,0.0,0.0,89,0.00,,---,0.00,VWS V14.01,2013-02-10 05:00:00,
2013-02-09 21:13:00,42.7,40.0,30.07,SSW,194,0.0,0.0,89,0.00,,,0.00,weatherlink.com 1.10,2013-02-10 05:13:00,
2013-02-09 21:15:00,42.6,39.6,30.07,SSW,202,0.0,0.0,89,0.00,,---,0.00,VWS V14.01,2013-02-10 05:15:00,
2013-02-09 21:28:00,42.5,40.0,30.07,SSW,194,0.0,0.0,91,0.00,,,0.00,weatherlink.com 1.10,2013-02-10 05:28:00,
2013-02-09 21:30:00,42.6,40.2,30.07,SSW,202,0.0,0.0,91,0.00,,---,0.00,VWS V14.01,2013-02-10 05:30:00,
2013-02-09 21:43:00,42.2,40.0,30.07,SSW,194,0.0,1.0,91,0.00,,,0.00,weatherlink.com 1.10,2013-02-10 05:43:00,
2013-02-09 21:45:00,42.2,39.8,30.07,SSW,202,0.0,2.0,91,0.00,,---,0.00,VWS V14.01,2013-02-10 05:45:00,
2013-02-09 21:58:00,42.5,40.0,30.08,South,176,0.0,0.0,91,0.00,,,0.00,weatherlink.com 1.10,2013-02-10 05:58:00,
2013-02-09 22:00:00,42.5,40.3,30.08,South,180,0.0,1.0,92,0.00,,---,0.00,VWS V14.01,2013-02-10 06:00:00,
2013-02-09 22:13:00,42.9,41.0,30.08,East,81,0.0,2.0,93,0.00,,,0.00,weatherlink.com 1.10,2013-02-10 06:13:00,
2013-02-09 22:15:00,43.0,41.1,30.08,SE,135,0.0,2.0,93,0.00,,---,0.00,VWS V14.01,2013-02-10 06:15:00,
2013-02-09 22:28:00,43.8,42.0,30.08,East,94,0.0,1.0,92,0.00,,,0.00,weatherlink.com 1.10,2013-02-10 06:28:00,
2013-02-09 22:30:00,43.9,41.7,30.08,East,90,0.0,3.0,92,0.00,,---,0.00,VWS V14.01,2013-02-10 06:30:00,
2013-02-09 22:43:00,44.1,42.0,30.08,East,94,0.0,2.0,91,0.00,,,0.00,weatherlink.com 1.10,2013-02-10 06:43:00,
2013-02-09 22:45:00,44.2,41.7,30.08,East,90,0.0,2.0,91,0.00,,---,0.00,VWS V14.01,2013-02-10 06:45:00,
2013-02-09 22:58:00,44.5,42.0,30.08,East,97,2.0,2.0,90,0.00,,,0.00,weatherlink.com 1.10,2013-02-10 06:58:00,
2013-02-09 23:00:00,44.5,41.8,30.08,East,90,0.0,3.0,90,0.00,,---,0.00,VWS V14.01,2013-02-10 07:00:00,
2013-02-09 23:13:00,44.6,42.0,30.08,East,98,0.0,2.0,90,0.00,,,0.00,weatherlink.com 1.10,2013-02-10 07:13:00,
2013-02-09 23:15:00,44.6,41.8,30.08,East,90,0.0,2.0,90,0.00,,---,0.00,VWS V14.01,2013-02-10 07:15:00,
2013-02-09 23:28:00,44.8,42.0,30.09,East,82,0.0,2.0,89,0.00,,,0.00,weatherlink.com 1.10,2013-02-10 07:28:00,
2013-02-09 23:30:00,44.8,41.8,30.09,East,90,0.0,2.0,89,0.00,,---,0.00,VWS V14.01,2013-02-10 07:30:00,
2013-02-09 23:43:00,45.1,42.0,30.09,East,87,1.0,2.0,89,0.00,,,0.00,weatherlink.com 1.10,2013-02-10 07:43:00,
2013-02-09 23:45:00,45.1,42.1,30.09,East,90,0.0,3.0,89,0.00,,---,0.00,VWS V14.01,2013-02-10 07:45:00,
2013-02-09 23:58:00,45.5,42.0,30.09,East,80,2.0,4.0,88,0.00,,,0.00,weatherlink.com 1.10,2013-02-10 07:58:00,